THOR ABLESTAR DEB, 3740

Orbit data source: Space-Track

THOR ABLESTAR DEB, 3740 is space debris in LEO originally from a launch on Thu, 29 Jun 1961 UTC launched from the Air Force Eastern Test Range (AFETR). Debris objects in space refer to the collection of defunct objects orbiting the Earth. Examples of debris include non-operational satellites, rocket bodies, and fragments generated from explosions, collisions, or faulty payload assembly.

Loading next visibility...
Identifier
3740, 1961-015JB
Orbit
LEO
Country
Flag of USUS
Related business
Manufacturer
Unknown
Mission
Spacecraft
Bus & Motor
Unknown
Mass
Unknown
Launch date (UTC)
1961-06-29 (65 years ago)
Launch vehicle
Unknown
Launch site
Air Force Eastern Test Range (AFETR)
Object type
Payload
Rocket body
Debris
Shape & HBR
Unknown shape, 0.1 m
Radar Cross Section
Small (<0.1 m²)

Expand to show TLE details & history
Last TLE update: 11 hours ago

TLE from 11 hours ago
0 THOR ABLESTAR DEB
1  3740U 61015JB  26036.97989497  .00000510  00000-0  31383-3 0  9993
2  3740  66.3331  27.0293 0077649 110.0979 250.8484 14.12265025303501
Epoch: 2026-02-05T23:31Z
TLE epoch observation values (Epoch: 2026-02-05T23:31:02.925Z)
Latitude
-0.00006°
Longitude
-101.85726°
Altitude
872.499 km
Speed
7.407 km/s
True Right ascension
01h 48m 07s
True Declination
0° 00' 00"
Sunlit
Object was in daylight at epoch
Visualization orbit readout
Latitude
Unknown
Longitude
Unknown
Altitude
Unknown
Speed
Unknown
Apparent Right ascension
Unknown
Apparent Declination
Unknown
Sunlit
N/A
Visualization observer readout
Local Sidereal Time
12:25:25
Azimuth
Unknown
Elevation
Unknown
Doppler factor
Unknown
Orbital elements
Apogee altitude
906.189 km
Perigee altitude
793.936 km
Semi-major axis
7,228.199 km
Eccentricity
0.00776
Inclination
66.3331°
RAAN
27.0293°
Arg. of periapsis
110.0979°
True anomaly
250.01055°
Mean anomaly
250.8484°
Eccentric anomaly
250.42921°
Mean motion
3.53182 °/min
Orbital period
101.93 mins
BSTAR
0.00031383
Loading maneuver chart data...
Computing Atmospheric mass density...

Documentation

Showing up to 5 results
|